GW0587 Weather Reports


Display with metric or nautical units.
time (UTC)temp
F
wind
direction
speed
MPH
gust
MPH
rain 1hr
in
rain 24hr
in
rain mn
in
humidity
%
barometer
mb
20260508161544 70 119 3.0 8.0 0.00 0.00 0.00 45 1016.3
20260508160047 70 100 2.0 7.0 0.00 0.00 0.00 47 1016.3
20260508154553 70 130 1.0 7.0 0.00 0.00 0.00 48 1016.4
20260508153042 69 167 1.0 6.0 0.00 0.00 0.00 51 1016.6
20260508151542 69 85 2.0 8.0 0.00 0.00 0.00 52 1016.8
20260508150046 69 84 0.0 7.0 0.00 0.00 0.00 54 1017.1
20260508144540 68 74 0.0 6.0 0.00 0.00 0.00 53 1017.1
20260508143047 66 154 1.0 8.0 0.00 0.00 0.00 55 1017.2
20260508141550 66 161 1.0 6.0 0.00 0.00 0.00 55 1017.4
20260508140052 66 165 0.0 4.0 0.00 0.00 0.00 56 1017.4
20260508134548 64 0 0.0 3.0 0.00 0.00 0.00 59 1017.2
20260508133049 63 104 0.0 2.0 0.00 0.00 0.00 62 1017.4
20260508131545 61 0 0.0 0.0 0.00 0.00 0.00 67 1017.9
20260508130047 58 0 0.0 0.0 0.00 0.00 0.00 73 1017.5
20260508124543 55 0 0.0 0.0 0.00 0.00 0.00 86 1017.7
20260508123047 52 0 0.0 0.0 0.00 0.00 0.00 93 1017.7
20260508121552 50 0 0.0 0.0 0.00 0.00 0.00 95 1017.7
20260508120057 48 0 0.0 0.0 0.00 0.00 0.00 94 1017.6
20260508114543 47 0 0.0 0.0 0.00 0.00 0.00 93 1017.4
20260508113044 47 0 0.0 0.0 0.00 0.00 0.00 92 1017.3
20260508111556 47 0 0.0 0.0 0.00 0.00 0.00 92 1016.9
20260508110058 47 0 0.0 0.0 0.00 0.00 0.00 91 1017.0
20260508104546 47 0 0.0 0.0 0.00 0.00 0.00 92 1016.7
20260508103055 47 0 0.0 0.0 0.00 0.00 0.00 91 1017.0
20260508101544 47 0 0.0 0.0 0.00 0.00 0.00 91 1016.9
20260508100048 48 0 0.0 0.0 0.00 0.00 0.00 91 1016.9
20260508094604 48 0 0.0 0.0 0.00 0.00 0.00 91 1016.9
20260508093046 48 0 0.0 0.0 0.00 0.00 0.00 91 1016.8
20260508091545 48 0 0.0 0.0 0.00 0.00 0.00 91 1016.9
20260508090053 48 0 0.0 0.0 0.00 0.00 0.00 91 1016.6
20260508084548 49 0 0.0 0.0 0.00 0.00 0.00 90 1016.5
20260508083107 49 0 0.0 0.0 0.00 0.00 0.00 90 1016.5
20260508081547 49 0 0.0 0.0 0.00 0.00 0.00 90 1016.5
20260508080046 49 0 0.0 0.0 0.00 0.00 0.00 90 1016.5
20260508074544 49 0 0.0 0.0 0.00 0.00 0.00 89 1016.7
20260508073043 50 0 0.0 0.0 0.00 0.00 0.00 89 1016.7
20260508071548 50 0 0.0 0.0 0.00 0.00 0.00 88 1016.9
20260508070047 50 0 0.0 0.0 0.00 0.00 0.00 89 1016.8
20260508064551 51 0 0.0 0.0 0.00 0.00 0.00 88 1017.0
20260508063047 51 0 0.0 0.0 0.00 0.00 0.00 88 1017.3
20260508061554 51 0 0.0 0.0 0.00 0.00 0.00 87 1017.2
20260508060051 51 0 0.0 0.0 0.00 0.00 0.00 87 1017.2
20260508054544 52 0 0.0 0.0 0.00 0.00 0.00 86 1017.3
20260508053045 52 0 0.0 0.0 0.00 0.00 0.00 85 1017.2
20260508051550 52 0 0.0 0.0 0.00 0.00 0.00 85 1017.3
20260508050048 52 0 0.0 0.0 0.00 0.00 0.00 84 1017.3
20260508044546 53 0 0.0 0.0 0.00 0.00 0.00 84 1017.2
20260508043053 53 0 0.0 0.0 0.00 0.00 0.00 83 1017.3
20260508041542 53 0 0.0 0.0 0.00 0.00 0.00 81 1017.4
20260508040042 53 0 0.0 0.0 0.00 0.00 0.00 80 1017.3
20260508034551 53 0 0.0 0.0 0.00 0.00 0.00 78 1017.2
20260508033048 54 0 0.0 0.0 0.00 0.00 0.00 78 1017.3
20260508031546 54 0 0.0 0.0 0.00 0.00 0.00 77 1017.3
20260508030045 55 0 0.0 0.0 0.00 0.00 0.00 78 1017.4
20260508024547 55 0 0.0 0.0 0.00 0.00 0.00 77 1017.3
20260508023042 56 0 0.0 0.0 0.00 0.00 0.00 76 1017.2
20260508021549 57 0 0.0 0.0 0.00 0.00 0.00 74 1017.0
20260508020047 57 0 0.0 0.0 0.00 0.00 0.00 73 1016.7
20260508014552 58 0 0.0 0.0 0.00 0.00 0.00 71 1016.7
20260508013046 59 0 0.0 0.0 0.00 0.00 0.00 70 1016.5
20260508011545 60 0 0.0 0.0 0.00 0.00 0.00 68 1016.6
20260508010043 61 0 0.0 0.0 0.00 0.00 0.00 66 1016.5
20260508004547 62 0 0.0 0.0 0.00 0.00 0.00 63 1016.3
20260508003059 63 0 0.0 0.0 0.00 0.00 0.00 61 1016.3
20260508001548 64 0 0.0 1.0 0.00 0.00 0.00 56 1016.3
20260508000047 65 0 0.0 4.0 0.00 0.00 0.00 53 1016.3
20260507234542 65 0 0.0 3.0 0.00 0.00 0.00 54 1016.1
20260507233041 65 0 0.0 3.0 0.00 0.00 0.00 52 1016.2
20260507231548 66 0 0.0 5.0 0.00 0.00 0.00 49 1016.1
20260507230047 67 5 0.0 3.0 0.00 0.00 0.00 48 1016.0
20260507224602 67 360 1.0 4.0 0.00 0.00 0.00 47 1016.3
20260507223054 67 0 1.0 5.0 0.00 0.00 0.00 48 1016.1
20260507221543 67 236 1.0 4.0 0.00 0.00 0.00 50 1016.2
20260507220040 66 0 0.0 8.0 0.00 0.00 0.00 49 1016.2
20260507214550 66 0 0.0 7.0 0.00 0.00 0.00 48 1016.2
20260507213046 67 352 2.0 6.0 0.00 0.00 0.00 48 1016.2
20260507211601 68 98 1.0 4.0 0.00 0.00 0.00 48 1016.4
20260507210045 68 257 2.0 7.0 0.00 0.00 0.00 49 1016.3
20260507204543 68 230 2.0 7.0 0.00 0.04 0.00 46 1016.3
20260507203047 68 266 2.0 10.0 0.00 0.04 0.00 45 1016.5
20260507201559 69 285 0.0 7.0 0.00 0.04 0.00 47 1016.6
20260507200059 70 259 1.0 5.0 0.00 0.04 0.00 48 1016.7
20260507194545 69 109 0.0 7.0 0.00 0.05 0.00 47 1016.8
20260507193044 68 246 1.0 7.0 0.00 0.05 0.00 47 1016.9
20260507191549 68 271 2.0 9.0 0.00 0.05 0.00 44 1017.1
20260507190041 68 298 1.0 9.0 0.00 0.05 0.00 45 1017.0
20260507184540 68 360 1.0 8.0 0.00 0.05 0.00 48 1017.1
20260507183045 67 317 2.0 6.0 0.00 0.05 0.00 47 1017.2
20260507181546 67 260 2.0 5.0 0.00 0.05 0.00 45 1017.4
20260507180049 68 0 2.0 7.0 0.00 0.05 0.00 45 1017.5
20260507174542 67 0 1.0 5.0 0.00 0.06 0.00 50 1017.7
20260507173047 66 267 2.0 9.0 0.00 0.06 0.00 52 1017.9
20260507171547 65 301 2.0 6.0 0.00 0.06 0.00 52 1018.0
20260507170047 65 325 1.0 7.0 0.00 0.06 0.00 53 1018.2
20260507164548 64 46 3.0 9.0 0.00 0.11 0.00 52 1018.4
20260507163042 65 86 2.0 8.0 0.00 0.11 0.00 50 1018.4